Time,TemperatureF,DewpointF,PressureIn,WindDirection,WindDirectionDegrees,WindSpeedMPH,WindSpeedGustMPH,Humidity,HourlyPrecipIn,Conditions,Clouds,dailyrainin,SoftwareType,DateUTC
2013-03-15 00:02:00,72.0,32.0,-100.00,ENE,78,6.0,9.0,23,-99.99,,,-99.99,,2013-03-15 07:02:00,
2013-03-15 00:12:00,72.0,34.0,-100.00,ENE,78,7.0,9.0,25,-99.99,,,-99.99,,2013-03-15 07:12:00,
2013-03-15 00:22:00,72.0,33.0,-100.00,ENE,78,7.0,9.0,24,-99.99,,,-99.99,,2013-03-15 07:22:00,
2013-03-15 00:32:00,72.0,31.0,-100.00,East,83,6.0,7.0,22,-99.99,,,-99.99,,2013-03-15 07:32:00,
2013-03-15 00:42:00,73.0,30.0,-100.00,East,82,6.0,7.0,20,-99.99,,,-99.99,,2013-03-15 07:42:00,
2013-03-15 00:52:00,73.0,28.0,-100.00,ENE,75,5.0,8.0,19,-99.99,,,-99.99,,2013-03-15 07:52:00,
2013-03-15 01:02:00,71.0,29.0,-100.00,ENE,74,7.0,9.0,21,-99.99,,,-99.99,,2013-03-15 08:02:00,
2013-03-15 01:12:00,72.0,27.0,-100.00,ENE,72,6.0,8.0,19,-99.99,,,-99.99,,2013-03-15 08:12:00,
2013-03-15 01:22:00,73.0,27.0,-100.00,ENE,72,5.0,6.0,18,-99.99,,,-99.99,,2013-03-15 08:22:00,
2013-03-15 01:42:00,74.0,29.0,-100.00,ENE,68,5.0,6.0,19,-99.99,,,-99.99,,2013-03-15 08:42:00,
2013-03-15 01:52:00,73.0,28.0,-100.00,ENE,64,6.0,8.0,19,-99.99,,,-99.99,,2013-03-15 08:52:00,
2013-03-15 02:02:00,71.0,29.0,-100.00,ENE,69,8.0,9.0,21,-99.99,,,-99.99,,2013-03-15 09:02:00,
2013-03-15 02:11:00,71.0,29.0,-100.00,ENE,70,7.0,8.0,21,-99.99,,,-99.99,,2013-03-15 09:11:00,
2013-03-15 02:21:00,70.0,28.0,-100.00,ENE,70,6.0,8.0,21,-99.99,,,-99.99,,2013-03-15 09:21:00,
2013-03-15 02:33:00,70.0,29.0,-100.00,ENE,68,5.0,7.0,22,-99.99,,,-99.99,,2013-03-15 09:33:00,
2013-03-15 02:42:00,71.0,29.0,-100.00,ENE,72,3.0,5.0,21,-99.99,,,-99.99,,2013-03-15 09:42:00,
2013-03-15 02:52:00,70.0,28.0,-100.00,NE,55,2.0,3.0,21,-99.99,,,-99.99,,2013-03-15 09:52:00,
2013-03-15 03:02:00,70.0,29.0,-100.00,ENE,78,2.0,4.0,22,-99.99,,,-99.99,,2013-03-15 10:02:00,
2013-03-15 03:12:00,70.0,29.0,-100.00,ENE,75,4.0,6.0,22,-99.99,,,-99.99,,2013-03-15 10:12:00,
2013-03-15 03:22:00,71.0,30.0,-100.00,East,81,3.0,5.0,22,-99.99,,,-99.99,,2013-03-15 10:22:00,
2013-03-15 03:32:00,71.0,29.0,-100.00,ENE,78,3.0,6.0,21,-99.99,,,-99.99,,2013-03-15 10:32:00,
2013-03-15 03:42:00,71.0,29.0,-100.00,East,88,4.0,6.0,21,-99.99,,,-99.99,,2013-03-15 10:42:00,
2013-03-15 03:52:00,70.0,29.0,-100.00,East,99,4.0,5.0,22,-99.99,,,-99.99,,2013-03-15 10:52:00,
2013-03-15 04:02:00,71.0,29.0,-100.00,East,82,4.0,7.0,21,-99.99,,,-99.99,,2013-03-15 11:02:00,
2013-03-15 04:12:00,71.0,28.0,-100.00,East,79,5.0,7.0,20,-99.99,,,-99.99,,2013-03-15 11:12:00,
2013-03-15 04:22:00,72.0,27.0,-100.00,ENE,60,4.0,7.0,19,-99.99,,,-99.99,,2013-03-15 11:22:00,
2013-03-15 04:32:00,70.0,27.0,-100.00,ENE,70,5.0,8.0,20,-99.99,,,-99.99,,2013-03-15 11:32:00,
2013-03-15 04:42:00,71.0,28.0,-100.00,ENE,72,4.0,6.0,20,-99.99,,,-99.99,,2013-03-15 11:42:00,
2013-03-15 04:52:00,70.0,28.0,-100.00,ESE,102,1.0,4.0,21,-99.99,,,-99.99,,2013-03-15 11:52:00,
2013-03-15 05:01:00,68.0,28.0,-100.00,North,352,1.0,3.0,22,-99.99,,,-99.99,,2013-03-15 12:01:00,
2013-03-15 05:12:00,68.0,29.0,-100.00,NE,52,3.0,5.0,23,-99.99,,,-99.99,,2013-03-15 12:12:00,
2013-03-15 05:22:00,68.0,29.0,-100.00,ENE,71,3.0,5.0,23,-99.99,,,-99.99,,2013-03-15 12:22:00,
2013-03-15 05:32:00,69.0,29.0,-100.00,ENE,72,3.0,5.0,22,-99.99,,,-99.99,,2013-03-15 12:32:00,
2013-03-15 05:42:00,69.0,27.0,-100.00,East,83,3.0,4.0,21,-99.99,,,-99.99,,2013-03-15 12:42:00,
2013-03-15 05:52:00,68.0,28.0,-100.00,ESE,110,4.0,5.0,22,-99.99,,,-99.99,,2013-03-15 12:52:00,
2013-03-15 06:02:00,69.0,26.0,-100.00,SE,127,1.0,3.0,20,-99.99,,,-99.99,,2013-03-15 13:02:00,
2013-03-15 06:12:00,70.0,27.0,-100.00,ENE,65,4.0,6.0,20,-99.99,,,-99.99,,2013-03-15 13:12:00,
2013-03-15 06:32:00,70.0,27.0,-100.00,ENE,66,2.0,4.0,20,-99.99,,,-99.99,,2013-03-15 13:32:00,
2013-03-15 06:42:00,70.0,28.0,-100.00,ENE,78,2.0,4.0,21,-99.99,,,-99.99,,2013-03-15 13:42:00,
2013-03-15 06:52:00,70.0,27.0,-100.00,East,85,2.0,4.0,20,-99.99,,,-99.99,,2013-03-15 13:52:00,
2013-03-15 07:02:00,71.0,28.0,-100.00,East,79,3.0,4.0,20,-99.99,,,-99.99,,2013-03-15 14:02:00,
2013-03-15 07:11:00,71.0,28.0,-100.00,East,87,4.0,4.0,20,-99.99,,,-99.99,,2013-03-15 14:11:00,
2013-03-15 07:22:00,71.0,29.0,-100.00,East,94,4.0,5.0,21,-99.99,,,-99.99,,2013-03-15 14:22:00,
2013-03-15 07:32:00,71.0,29.0,-100.00,East,96,4.0,5.0,21,-99.99,,,-99.99,,2013-03-15 14:32:00,
2013-03-15 07:42:00,71.0,30.0,-100.00,East,80,2.0,4.0,22,-99.99,,,-99.99,,2013-03-15 14:42:00,
2013-03-15 07:52:00,71.0,30.0,-100.00,East,94,1.0,2.0,22,-99.99,,,-99.99,,2013-03-15 14:52:00,
2013-03-15 08:02:00,71.0,30.0,-100.00,ENE,72,1.0,3.0,22,-99.99,,,-99.99,,2013-03-15 15:02:00,
2013-03-15 08:12:00,71.0,29.0,-100.00,ENE,71,3.0,4.0,21,-99.99,,,-99.99,,2013-03-15 15:12:00,
2013-03-15 08:21:00,73.0,30.0,-100.00,NE,54,2.0,3.0,20,-99.99,,,-99.99,,2013-03-15 15:21:00,
2013-03-15 08:32:00,73.0,31.0,-100.00,NE,53,3.0,4.0,21,-99.99,,,-99.99,,2013-03-15 15:32:00,
2013-03-15 08:42:00,73.0,32.0,-100.00,North,357,1.0,2.0,22,-99.99,,,-99.99,,2013-03-15 15:42:00,
2013-03-15 08:52:00,73.0,34.0,-100.00,SE,130,0.0,1.0,24,-99.99,,,-99.99,,2013-03-15 15:52:00,
2013-03-15 09:02:00,73.0,33.0,-100.00,WSW,239,1.0,1.0,23,-99.99,,,-99.99,,2013-03-15 16:02:00,
2013-03-15 09:12:00,72.0,32.0,-100.00,SSE,147,0.0,1.0,23,-99.99,,,-99.99,,2013-03-15 16:12:00,
2013-03-15 09:22:00,73.0,34.0,-100.00,SE,131,0.0,2.0,24,-99.99,,,-99.99,,2013-03-15 16:22:00,
2013-03-15 09:32:00,72.0,32.0,-100.00,West,276,1.0,3.0,23,-99.99,,,-99.99,,2013-03-15 16:32:00,
2013-03-15 09:42:00,72.0,33.0,-100.00,West,273,0.0,2.0,24,-99.99,,,-99.99,,2013-03-15 16:42:00,
2013-03-15 09:52:00,71.0,37.0,-100.00,West,276,3.0,5.0,29,-99.99,,,-99.99,,2013-03-15 16:52:00,
2013-03-15 10:01:00,71.0,37.0,-100.00,West,276,3.0,5.0,29,-99.99,,,-99.99,,2013-03-15 17:01:00,
2013-03-15 10:12:00,68.0,37.0,-100.00,WNW,286,1.0,2.0,32,-99.99,,,-99.99,,2013-03-15 17:12:00,
2013-03-15 10:21:00,69.0,35.0,-100.00,WNW,284,0.0,2.0,29,-99.99,,,-99.99,,2013-03-15 17:21:00,
2013-03-15 10:32:00,69.0,36.0,-100.00,West,267,0.0,1.0,30,-99.99,,,-99.99,,2013-03-15 17:32:00,
2013-03-15 10:42:00,69.0,37.0,-100.00,West,268,0.0,1.0,31,-99.99,,,-99.99,,2013-03-15 17:42:00,
2013-03-15 10:52:00,71.0,35.0,-100.00,NW,310,1.0,2.0,27,-99.99,,,-99.99,,2013-03-15 17:52:00,
2013-03-15 11:02:00,71.0,35.0,-100.00,WNW,296,1.0,3.0,27,-99.99,,,-99.99,,2013-03-15 18:02:00,
2013-03-15 11:12:00,72.0,35.0,-100.00,West,265,2.0,3.0,26,-99.99,,,-99.99,,2013-03-15 18:12:00,
2013-03-15 11:22:00,73.0,36.0,-100.00,WSW,257,2.0,5.0,26,-99.99,,,-99.99,,2013-03-15 18:22:00,
2013-03-15 11:32:00,73.0,35.0,-100.00,WSW,239,2.0,5.0,25,-99.99,,,-99.99,,2013-03-15 18:32:00,
2013-03-15 11:42:00,75.0,32.0,-100.00,West,278,2.0,5.0,21,-99.99,,,-99.99,,2013-03-15 18:42:00,
2013-03-15 11:52:00,75.0,32.0,-100.00,West,278,2.0,5.0,21,-99.99,,,-99.99,,2013-03-15 18:52:00,
2013-03-15 12:02:00,76.0,33.0,-100.00,South,190,2.0,4.0,21,-99.99,,,-99.99,,2013-03-15 19:02:00,
2013-03-15 12:12:00,76.0,34.0,-100.00,SW,223,3.0,9.0,22,-99.99,,,-99.99,,2013-03-15 19:12:00,
2013-03-15 12:22:00,75.0,35.0,-100.00,West,278,5.0,8.0,23,-99.99,,,-99.99,,2013-03-15 19:22:00,
2013-03-15 12:32:00,75.0,37.0,-100.00,West,273,6.0,9.0,25,-99.99,,,-99.99,,2013-03-15 19:32:00,
2013-03-15 12:42:00,75.0,37.0,-100.00,West,271,5.0,9.0,25,-99.99,,,-99.99,,2013-03-15 19:42:00,
2013-03-15 12:52:00,76.0,39.0,-100.00,West,278,5.0,8.0,26,-99.99,,,-99.99,,2013-03-15 19:52:00,
2013-03-15 13:02:00,77.0,37.0,-100.00,WNW,286,5.0,9.0,24,-99.99,,,-99.99,,2013-03-15 20:02:00,
2013-03-15 13:12:00,77.0,36.0,-100.00,WNW,291,5.0,8.0,23,-99.99,,,-99.99,,2013-03-15 20:12:00,
2013-03-15 13:22:00,77.0,34.0,-100.00,WNW,293,5.0,8.0,21,-99.99,,,-99.99,,2013-03-15 20:22:00,
2013-03-15 13:31:00,77.0,33.0,-100.00,WNW,284,6.0,9.0,20,-99.99,,,-99.99,,2013-03-15 20:31:00,
2013-03-15 13:42:00,75.0,34.0,-100.00,West,277,6.0,9.0,22,-99.99,,,-99.99,,2013-03-15 20:42:00,
2013-03-15 13:51:00,76.0,36.0,-100.00,West,278,6.0,8.0,23,-99.99,,,-99.99,,2013-03-15 20:51:00,
2013-03-15 14:02:00,77.0,35.0,-100.00,WNW,285,6.0,10.0,22,-99.99,,,-99.99,,2013-03-15 21:02:00,
2013-03-15 14:11:00,76.0,38.0,-100.00,WNW,282,7.0,13.0,25,-99.99,,,-99.99,,2013-03-15 21:11:00,
2013-03-15 14:22:00,76.0,40.0,-100.00,West,277,7.0,12.0,27,-99.99,,,-99.99,,2013-03-15 21:22:00,
2013-03-15 14:32:00,75.0,41.0,-100.00,West,281,7.0,12.0,29,-99.99,,,-99.99,,2013-03-15 21:32:00,
2013-03-15 14:42:00,76.0,41.0,-100.00,WNW,287,7.0,11.0,29,-99.99,,,-99.99,,2013-03-15 21:42:00,
2013-03-15 14:52:00,75.0,41.0,-100.00,West,279,7.0,12.0,30,-99.99,,,-99.99,,2013-03-15 21:52:00,
2013-03-15 15:03:00,76.0,41.0,-100.00,West,272,8.0,11.0,29,-99.99,,,-99.99,,2013-03-15 22:03:00,
2013-03-15 15:12:00,76.0,42.0,-100.00,WNW,282,7.0,11.0,30,-99.99,,,-99.99,,2013-03-15 22:12:00,
2013-03-15 15:22:00,75.0,41.0,-100.00,West,277,8.0,12.0,30,-99.99,,,-99.99,,2013-03-15 22:22:00,
2013-03-15 15:32:00,76.0,42.0,-100.00,West,273,7.0,12.0,30,-99.99,,,-99.99,,2013-03-15 22:32:00,
2013-03-15 15:42:00,76.0,43.0,-100.00,West,277,8.0,12.0,31,-99.99,,,-99.99,,2013-03-15 22:42:00,
2013-03-15 15:52:00,75.0,43.0,-100.00,West,276,7.0,13.0,32,-99.99,,,-99.99,,2013-03-15 22:52:00,
2013-03-15 16:02:00,75.0,43.0,-100.00,West,268,7.0,10.0,32,-99.99,,,-99.99,,2013-03-15 23:02:00,
2013-03-15 16:12:00,75.0,45.0,-100.00,West,269,8.0,11.0,34,-99.99,,,-99.99,,2013-03-15 23:12:00,
2013-03-15 16:21:00,75.0,45.0,-100.00,West,274,8.0,12.0,35,-99.99,,,-99.99,,2013-03-15 23:21:00,
2013-03-15 16:32:00,75.0,45.0,-100.00,West,281,8.0,13.0,34,-99.99,,,-99.99,,2013-03-15 23:32:00,
2013-03-15 16:42:00,75.0,43.0,-100.00,West,278,8.0,13.0,32,-99.99,,,-99.99,,2013-03-15 23:42:00,
2013-03-15 16:52:00,75.0,43.0,-100.00,West,278,8.0,12.0,32,-99.99,,,-99.99,,2013-03-15 23:52:00,
2013-03-15 17:02:00,74.0,44.0,-100.00,West,274,8.0,12.0,34,-99.99,,,-99.99,,2013-03-16 00:02:00,
2013-03-15 17:12:00,74.0,46.0,-100.00,West,271,8.0,14.0,37,-99.99,,,-99.99,,2013-03-16 00:12:00,
2013-03-15 17:22:00,73.0,46.0,-100.00,West,270,7.0,11.0,38,-99.99,,,-99.99,,2013-03-16 00:22:00,
2013-03-15 17:32:00,73.0,46.0,-100.00,West,270,8.0,13.0,38,-99.99,,,-99.99,,2013-03-16 00:32:00,
2013-03-15 17:42:00,73.0,46.0,-100.00,West,270,8.0,13.0,38,-99.99,,,-99.99,,2013-03-16 00:42:00,
2013-03-15 17:52:00,71.0,46.0,-100.00,West,272,9.0,12.0,41,-99.99,,,-99.99,,2013-03-16 00:52:00,
2013-03-15 18:02:00,71.0,46.0,-100.00,WSW,258,7.0,11.0,41,-99.99,,,-99.99,,2013-03-16 01:02:00,
2013-03-15 18:12:00,71.0,45.0,-100.00,WSW,245,7.0,10.0,40,-99.99,,,-99.99,,2013-03-16 01:12:00,
2013-03-15 18:21:00,71.0,45.0,-100.00,WSW,242,6.0,10.0,40,-99.99,,,-99.99,,2013-03-16 01:21:00,
2013-03-15 18:32:00,70.0,45.0,-100.00,West,266,7.0,10.0,40,-99.99,,,-99.99,,2013-03-16 01:32:00,
2013-03-15 18:42:00,70.0,45.0,-100.00,West,265,6.0,10.0,41,-99.99,,,-99.99,,2013-03-16 01:42:00,
2013-03-15 18:52:00,69.0,45.0,-100.00,WSW,250,6.0,9.0,42,-99.99,,,-99.99,,2013-03-16 01:52:00,
2013-03-15 19:02:00,68.0,45.0,-100.00,WSW,253,6.0,8.0,43,-99.99,,,-99.99,,2013-03-16 02:02:00,
2013-03-15 19:12:00,67.0,46.0,-100.00,WSW,245,5.0,7.0,46,-99.99,,,-99.99,,2013-03-16 02:12:00,
2013-03-15 19:22:00,66.0,46.0,-100.00,SW,227,4.0,6.0,48,-99.99,,,-99.99,,2013-03-16 02:22:00,
2013-03-15 19:32:00,65.0,47.0,-100.00,South,177,3.0,5.0,52,-99.99,,,-99.99,,2013-03-16 02:32:00,
2013-03-15 19:42:00,64.0,46.0,-100.00,SE,136,2.0,4.0,52,-99.99,,,-99.99,,2013-03-16 02:42:00,
2013-03-15 19:52:00,64.0,47.0,-100.00,SW,229,1.0,4.0,53,-99.99,,,-99.99,,2013-03-16 02:52:00,
2013-03-15 20:02:00,63.0,46.0,-100.00,West,264,3.0,6.0,54,-99.99,,,-99.99,,2013-03-16 03:02:00,
2013-03-15 20:11:00,62.0,47.0,-100.00,SW,227,2.0,4.0,57,-99.99,,,-99.99,,2013-03-16 03:11:00,
2013-03-15 20:21:00,61.0,47.0,-100.00,SE,133,2.0,3.0,59,-99.99,,,-99.99,,2013-03-16 03:21:00,
2013-03-15 20:32:00,61.0,47.0,-100.00,ESE,122,2.0,2.0,60,-99.99,,,-99.99,,2013-03-16 03:32:00,
2013-03-15 20:42:00,61.0,47.0,-100.00,ESE,118,2.0,5.0,61,-99.99,,,-99.99,,2013-03-16 03:42:00,
2013-03-15 20:52:00,60.0,47.0,-100.00,ESE,105,3.0,5.0,62,-99.99,,,-99.99,,2013-03-16 03:52:00,
2013-03-15 21:02:00,60.0,47.0,-100.00,East,96,2.0,3.0,62,-99.99,,,-99.99,,2013-03-16 04:02:00,
2013-03-15 21:12:00,61.0,47.0,-100.00,East,100,2.0,3.0,60,-99.99,,,-99.99,,2013-03-16 04:12:00,
2013-03-15 21:22:00,61.0,47.0,-100.00,East,89,3.0,4.0,61,-99.99,,,-99.99,,2013-03-16 04:22:00,
2013-03-15 21:32:00,61.0,47.0,-100.00,East,100,3.0,4.0,60,-99.99,,,-99.99,,2013-03-16 04:32:00,
2013-03-15 21:42:00,61.0,48.0,-100.00,ESE,118,4.0,6.0,63,-99.99,,,-99.99,,2013-03-16 04:42:00,
2013-03-15 21:52:00,60.0,47.0,-100.00,ESE,116,5.0,7.0,61,-99.99,,,-99.99,,2013-03-16 04:52:00,
2013-03-15 22:02:00,61.0,46.0,-100.00,SE,127,5.0,6.0,57,-99.99,,,-99.99,,2013-03-16 05:02:00,
2013-03-15 22:12:00,62.0,43.0,-100.00,SE,143,5.0,7.0,49,-99.99,,,-99.99,,2013-03-16 05:12:00,
2013-03-15 22:21:00,62.0,40.0,-100.00,SSE,167,3.0,6.0,44,-99.99,,,-99.99,,2013-03-16 05:21:00,
2013-03-15 22:32:00,61.0,41.0,-100.00,SSW,192,2.0,3.0,48,-99.99,,,-99.99,,2013-03-16 05:32:00,
2013-03-15 22:42:00,61.0,43.0,-100.00,SE,142,2.0,3.0,51,-99.99,,,-99.99,,2013-03-16 05:42:00,
2013-03-15 22:52:00,61.0,42.0,-100.00,SE,131,2.0,4.0,49,-99.99,,,-99.99,,2013-03-16 05:52:00,
2013-03-15 23:02:00,61.0,41.0,-100.00,ESE,121,5.0,7.0,48,-99.99,,,-99.99,,2013-03-16 06:02:00,
2013-03-15 23:12:00,62.0,40.0,-100.00,SE,134,7.0,8.0,44,-99.99,,,-99.99,,2013-03-16 06:12:00,
2013-03-15 23:21:00,62.0,39.0,-100.00,SE,126,7.0,8.0,42,-99.99,,,-99.99,,2013-03-16 06:21:00,
2013-03-15 23:32:00,62.0,33.0,-100.00,ESE,123,7.0,9.0,33,-99.99,,,-99.99,,2013-03-16 06:32:00,
2013-03-15 23:42:00,62.0,27.0,-100.00,ESE,122,8.0,9.0,26,-99.99,,,-99.99,,2013-03-16 06:42:00,
2013-03-15 23:52:00,63.0,24.0,-100.00,SE,124,7.0,8.0,22,-99.99,,,-99.99,,2013-03-16 06:52:00,